When you browse on this site, cookies collect data to enhance your experience and personalize the content and advertising you see.
Visit our Privacy Policy to learn more. By continuing to use the site, you agree to this use of cookies and data.
  • In Sweden
  • List of Countries
  • For 7 days
  • Water Temperature
  • Weather Map
  • Weather Widgets
  • user-avatar
    Login

    Hourly Weather Przezwiska

    Today, 29 May, Friday

    Time Temperature Precipitation Wind Pressure Humidity
    00:00 +8°C° 0 mm 4 mps 760 mmHg 84%
    01:00 +7°C° 0 mm 4 mps 760 mmHg 79%
    02:00 +7°C° 0 mm 4 mps 760 mmHg 79%
    03:00 +7°C° 0 mm 4 mps 760 mmHg 78%
    04:00 +7°C° 0 mm 4 mps 760 mmHg 77%
    05:00 +8°C° 0 mm 4 mps 760 mmHg 77%
    06:00 +8°C° 0 mm 5 mps 760 mmHg 76%
    07:00 +9°C° 0 mm 5 mps 760 mmHg 75%
    08:00 +12°C° 0 mm 5 mps 760 mmHg 69%
    09:00 +13°C° 0 mm 6 mps 760 mmHg 62%
    10:00 +14°C° 0 mm 7 mps 760 mmHg 55%
    11:00 +15°C° 0 mm 7 mps 760 mmHg 55%
    12:00 +15°C° 0 mm 7 mps 759 mmHg 54%
    13:00 +16°C° 0 mm 7 mps 759 mmHg 54%
    14:00 +15°C° 0 mm 7 mps 759 mmHg 55%
    15:00 +15°C° 0 mm 7 mps 758 mmHg 57%
    16:00 +15°C° 0 mm 7 mps 758 mmHg 58%
    17:00 +14°C° 0 mm 6 mps 758 mmHg 63%
    18:00 +11°C° 0 mm 6 mps 758 mmHg 68%
    19:00 +10°C° 0 mm 5 mps 758 mmHg 73%
    20:00 +9°C° 0 mm 5 mps 758 mmHg 75%
    21:00 +8°C° 0 mm 5 mps 758 mmHg 77%
    22:00 +7°C° 0 mm 5 mps 758 mmHg 78%
    23:00 +6°C° 0 mm 4 mps 757 mmHg 82%

    Tomorrow, 30 May, Saturday

    Time Temperature Precipitation Wind Pressure Humidity
    00:00 +6°C° 0 mm 4 mps 757 mmHg 86%
    01:00 +5°C° 0 mm 4 mps 757 mmHg 90%
    02:00 +5°C° 0 mm 4 mps 757 mmHg 89%
    03:00 +6°C° 0 mm 4 mps 757 mmHg 88%
    04:00 +6°C° 0 mm 4 mps 757 mmHg 87%
    05:00 +7°C° 0 mm 4 mps 757 mmHg 83%
    06:00 +8°C° 0 mm 5 mps 757 mmHg 79%
    07:00 +9°C° 0 mm 5 mps 757 mmHg 76%
    08:00 +11°C° 0 mm 6 mps 756 mmHg 70%
    09:00 +14°C° 0 mm 6 mps 756 mmHg 65%
    10:00 +15°C° 0 mm 7 mps 756 mmHg 60%
    11:00 +16°C° 0 mm 7 mps 755 mmHg 59%
    12:00 +16°C° 0 mm 7 mps 755 mmHg 58%
    13:00 +16°C° 0 mm 7 mps 755 mmHg 57%
    14:00 +16°C° 0 mm 7 mps 755 mmHg 60%
    15:00 +16°C° 0 mm 7 mps 754 mmHg 62%
    16:00 +15°C° 0 mm 7 mps 754 mmHg 64%
    17:00 +14°C° 0 mm 7 mps 754 mmHg 68%
    18:00 +13°C° 0 mm 6 mps 754 mmHg 72%
    19:00 +11°C° 0 mm 6 mps 754 mmHg 76%
    20:00 +11°C° 0 mm 6 mps 753 mmHg 76%
    21:00 +11°C° 0 mm 6 mps 753 mmHg 75%
    22:00 +10°C° 0 mm 6 mps 753 mmHg 75%
    23:00 +10°C° 0.5 mm 7 mps 752 mmHg 79%

    Day after tomorrow, 31 May, Sunday

    Time Temperature Precipitation Wind Pressure Humidity
    00:00 +9°C° 0.5 mm 7 mps 752 mmHg 84%
    01:00 +9°C° 0.5 mm 7 mps 752 mmHg 89%
    02:00 +9°C° 2.1 mm 7 mps 751 mmHg 90%
    03:00 +9°C° 2.1 mm 7 mps 751 mmHg 91%
    04:00 +9°C° 2.1 mm 7 mps 751 mmHg 92%
    05:00 +9°C° 0.4 mm 7 mps 751 mmHg 90%
    06:00 +10°C° 0.4 mm 7 mps 751 mmHg 87%
    07:00 +10°C° 0.4 mm 6 mps 751 mmHg 85%
    08:00 +11°C° 0 mm 7 mps 751 mmHg 81%
    09:00 +14°C° 0 mm 7 mps 751 mmHg 78%
    10:00 +15°C° 0 mm 7 mps 751 mmHg 75%
    11:00 +16°C° 0 mm 7 mps 752 mmHg 75%
    12:00 +16°C° 0 mm 7 mps 752 mmHg 75%
    13:00 +16°C° 0 mm 6 mps 752 mmHg 75%
    14:00 +17°C° 0 mm 6 mps 752 mmHg 74%
    15:00 +17°C° 0 mm 6 mps 753 mmHg 74%
    16:00 +19°C° 0 mm 6 mps 753 mmHg 73%
    17:00 +17°C° 0 mm 5 mps 753 mmHg 75%
    18:00 +16°C° 0 mm 5 mps 753 mmHg 77%
    19:00 +16°C° 0 mm 5 mps 754 mmHg 79%
    20:00 +15°C° 0 mm 5 mps 754 mmHg 79%
    21:00 +14°C° 0 mm 4 mps 755 mmHg 80%
    22:00 +13°C° 0 mm 4 mps 755 mmHg 81%
    23:00 +12°C° 0 mm 4 mps 755 mmHg 82%

    1 June, Monday

    Time Temperature Precipitation Wind Pressure Humidity
    00:00 +11°C° 0 mm 4 mps 756 mmHg 83%
    01:00 +11°C° 0 mm 4 mps 756 mmHg 84%
    02:00 +10°C° 0 mm 4 mps 756 mmHg 85%
    03:00 +10°C° 0 mm 4 mps 756 mmHg 86%
    04:00 +8°C° 0 mm 4 mps 757 mmHg 87%
    05:00 +11°C° 0 mm 4 mps 757 mmHg 84%
    06:00 +12°C° 0 mm 4 mps 757 mmHg 80%
    07:00 +14°C° 0 mm 5 mps 758 mmHg 76%
    08:00 +15°C° 0 mm 5 mps 758 mmHg 71%
    09:00 +16°C° 0 mm 5 mps 758 mmHg 66%
    10:00 +19°C° 0 mm 5 mps 758 mmHg 61%
    11:00 +19°C° 0 mm 5 mps 758 mmHg 60%
    12:00 +20°C° 0 mm 5 mps 758 mmHg 59%
    13:00 +20°C° 0 mm 5 mps 758 mmHg 57%
    14:00 +20°C° 0 mm 6 mps 758 mmHg 58%
    15:00 +19°C° 0 mm 6 mps 758 mmHg 59%
    16:00 +19°C° 0 mm 6 mps 758 mmHg 59%
    17:00 +17°C° 0 mm 5 mps 758 mmHg 64%
    18:00 +17°C° 0 mm 4 mps 758 mmHg 68%
    19:00 +14°C° 0 mm 4 mps 758 mmHg 73%
    20:00 +13°C° 0 mm 3 mps 758 mmHg 77%
    21:00 +12°C° 0 mm 3 mps 758 mmHg 81%
    22:00 +11°C° 0 mm 3 mps 759 mmHg 85%
    23:00 +10°C° 0 mm 3 mps 758 mmHg 88%

    2 June, Tuesday

    Time Temperature Precipitation Wind Pressure Humidity
    00:00 +10°C° 0 mm 2 mps 758 mmHg 90%
    01:00 +10°C° 0 mm 2 mps 758 mmHg 93%
    02:00 +9°C° 0 mm 2 mps 758 mmHg 93%
    03:00 +9°C° 0 mm 2 mps 758 mmHg 94%
    04:00 +9°C° 0 mm 2 mps 758 mmHg 95%
    05:00 +12°C° 0 mm 2 mps 758 mmHg 89%
    06:00 +13°C° 0 mm 3 mps 758 mmHg 84%
    07:00 +14°C° 0 mm 3 mps 758 mmHg 79%
    08:00 +17°C° 0.1 mm 3 mps 757 mmHg 75%
    09:00 +18°C° 0.1 mm 4 mps 757 mmHg 71%
    10:00 +19°C° 0.1 mm 4 mps 757 mmHg 67%
    11:00 +19°C° 0.3 mm 5 mps 757 mmHg 67%
    12:00 +19°C° 0.3 mm 5 mps 756 mmHg 66%
    13:00 +19°C° 0.3 mm 5 mps 756 mmHg 65%
    14:00 +19°C° 0.4 mm 5 mps 755 mmHg 67%
    15:00 +19°C° 0.4 mm 5 mps 755 mmHg 68%
    16:00 +19°C° 0.4 mm 5 mps 755 mmHg 69%
    17:00 +18°C° 0.2 mm 4 mps 755 mmHg 74%
    18:00 +17°C° 0.2 mm 4 mps 754 mmHg 79%
    19:00 +16°C° 0.2 mm 3 mps 754 mmHg 84%
    20:00 +14°C° 0 mm 3 mps 754 mmHg 86%
    21:00 +14°C° 0 mm 2 mps 755 mmHg 89%
    22:00 +13°C° 0 mm 2 mps 755 mmHg 92%
    23:00 +12°C° 0 mm 2 mps 755 mmHg 92%

    3 June, Wednesday

    Time Temperature Precipitation Wind Pressure Humidity
    00:00 +12°C° 0 mm 2 mps 754 mmHg 92%
    01:00 +11°C° 0 mm 1 mps 754 mmHg 92%
    02:00 +11°C° 0 mm 1 mps 754 mmHg 92%
    03:00 +11°C° 0 mm 1 mps 754 mmHg 92%
    04:00 +10°C° 0 mm 1 mps 754 mmHg 92%
    05:00 +12°C° 0 mm 1 mps 754 mmHg 87%
    06:00 +14°C° 0 mm 1 mps 754 mmHg 83%
    07:00 +15°C° 0 mm 1 mps 754 mmHg 78%
    08:00 +16°C° 0 mm 1 mps 753 mmHg 72%
    09:00 +18°C° 0 mm 2 mps 753 mmHg 66%
    10:00 +19°C° 0 mm 2 mps 753 mmHg 60%
    11:00 +19°C° 0.1 mm 2 mps 753 mmHg 59%
    12:00 +20°C° 0.1 mm 2 mps 753 mmHg 57%
    13:00 +20°C° 0.1 mm 2 mps 752 mmHg 56%
    14:00 +20°C° 0 mm 2 mps 752 mmHg 56%
    15:00 +20°C° 0 mm 2 mps 752 mmHg 56%
    16:00 +20°C° 0 mm 3 mps 751 mmHg 55%
    17:00 +19°C° 0 mm 2 mps 751 mmHg 61%
    18:00 +18°C° 0 mm 2 mps 751 mmHg 66%
    19:00 +16°C° 0 mm 2 mps 750 mmHg 72%
    20:00 +14°C° 0 mm 3 mps 750 mmHg 72%
    21:00 +13°C° 0 mm 3 mps 751 mmHg 73%
    22:00 +12°C° 0 mm 3 mps 751 mmHg 73%
    23:00 +11°C° 0 mm 3 mps 750 mmHg 75%
    Show more